To NAV CANADA Home Page Login to a new session Search on AWWS site Feedback and Comments Disclaimer Vers la page française équivalente Tips FAQ What's new on the site To the Forecasts and Observations / NOTAM section To "File a Flight Plan" website Publications and other links Update of the User's profile FIC Telephone Numbers My Weather Data Folder Route Weather Data Regional Weather Data Local Weather Data To the Forecasts and Observations / NOTAM section
Request Generated 09/01/2015 at 22:18:19 UTC . Weather information available at that time is displayed.

METAR/TAF

PANGNIRTUNG/NU    (show WxCam)

METAR CYXP 012200Z 25012KT 15SM BKN030 BKN070 05/M00 A3002 RMK SC5AC1
5.8/1.7/TR LAST STFD OBS/NEXT 021100Z SLP167=
METAR CYXP 012100Z 25009KT 15SM FEW025 BKN040 05/M00 A3002 RMK SC1SC4
SLP166=
METAR CYXP 012000Z 25010KT 15SM FEW023 BKN030 BKN045 04/01 A3002 RMK
SC1SC4SC2 SLP167=

*** REMARK        : Forecast period has ended; this was the last TAF issued
*** REMARQUE : La période de prévision est échue; ceci était le dernier TAF qui a été émis
TAF CYXP 011838Z 0119/0122 VRB03KT P6SM FEW025 BKN030
RMK NXT FCST WILL BE ISSUED AT 021245Z=
Your time UTC time
Weather data provided by Environment Canada and NAV CANADA